HP1PCR-13 Weather Reports


time (UTC)temp
C
wind
direction
speed
KPH
gust
KPH
rain 1hr
cm
rain 24hr
cm
rain mn
cm
humidity
%
barometer
mb
20260507142812 33 0.0 0.0 0.00 0.00 0.00 44 1005.1
20260507141808 33 0.0 0.0 0.00 0.00 0.00 44 1005.1
20260507140804 33 0.0 0.0 0.00 0.00 0.00 44 1005.2
20260507135800 33 0.0 0.0 0.00 0.00 0.00 44 1005.2
20260507134756 33 0.0 0.0 0.00 0.00 0.00 44 1005.1
20260507133752 33 0.0 0.0 0.00 0.00 0.00 44 1004.9
20260507131743 33 0.0 0.0 0.00 0.00 0.00 43 1004.6
20260507130739 33 0.0 0.0 0.00 0.00 0.00 43 1004.5
20260507125735 33 0.0 0.0 0.00 0.00 0.00 43 1004.6
20260507124731 33 0.0 0.0 0.00 0.00 0.00 43 1004.5
20260507123728 33 0.0 0.0 0.00 0.00 0.00 43 1004.6
20260507122724 33 0.0 0.0 0.00 0.00 0.00 43 1004.6
20260507121719 33 0.0 0.0 0.00 0.00 0.00 44 1004.6
20260507120715 33 0.0 0.0 0.00 0.00 0.00 43 1004.4
20260507115711 33 0.0 0.0 0.00 0.00 0.00 43 1004.2
20260507114707 33 0.0 0.0 0.00 0.00 0.00 43 1004.1
20260507113702 33 0.0 0.0 0.00 0.00 0.00 42 1004.1
20260507112658 33 0.0 0.0 0.00 0.00 0.00 45 1003.9
20260507111654 33 0.0 0.0 0.00 0.00 0.00 45 1003.8
20260507110650 33 0.0 0.0 0.00 0.00 0.00 45 1003.7
20260507104643 33 0.0 0.0 0.00 0.00 0.00 45 1003.4
20260507103638 33 0.0 0.0 0.00 0.00 0.00 45 1003.3
20260507102634 33 0.0 0.0 0.00 0.00 0.00 45 1003.3
20260507101630 33 0.0 0.0 0.00 0.00 0.00 45 1003.3
20260507100626 33 0.0 0.0 0.00 0.00 0.00 45 1003.4
20260507095622 33 0.0 0.0 0.00 0.00 0.00 45 1003.3
20260507094617 33 0.0 0.0 0.00 0.00 0.00 45 1003.2
20260507092610 33 0.0 0.0 0.00 0.00 0.00 45 1003.1
20260507091605 33 0.0 0.0 0.00 0.00 0.00 45 1003.1
20260507090601 33 0.0 0.0 0.00 0.00 0.00 45 1003.1
20260507085556 32 0.0 0.0 0.00 0.00 0.00 45 1003.1
20260507084553 32 0.0 0.0 0.00 0.00 0.00 45 1003.3
20260507083549 32 0.0 0.0 0.00 0.00 0.00 45 1003.4
20260507082544 32 0.0 0.0 0.00 0.00 0.00 45 1003.3
20260507081540 32 0.0 0.0 0.00 0.00 0.00 45 1003.5
20260507075532 32 0.0 0.0 0.00 0.00 0.00 45 1003.4
20260507073524 32 0.0 0.0 0.00 0.00 0.00 46 1003.7
20260507072520 32 0.0 0.0 0.00 0.00 0.00 46 1003.8
20260507071516 32 0.0 0.0 0.00 0.00 0.00 46 1003.9
20260507070512 32 0.0 0.0 0.00 0.00 0.00 46 1004.0
20260507065508 32 0.0 0.0 0.00 0.00 0.00 46 1004.2
20260507064504 32 0.0 0.0 0.00 0.00 0.00 46 1004.2
20260507063459 32 0.0 0.0 0.00 0.00 0.00 46 1004.4
20260507062455 32 0.0 0.0 0.00 0.00 0.00 46 1004.5
20260507060447 32 0.0 0.0 0.00 0.00 0.00 46 1004.4
20260507055442 32 0.0 0.0 0.00 0.00 0.00 46 1004.7
20260507054438 32 0.0 0.0 0.00 0.00 0.00 46 1004.7
20260507051426 32 0.0 0.0 0.00 0.00 0.00 46 1004.9
20260507050422 32 0.0 0.0 0.00 0.00 0.00 46 1004.9
20260507045418 32 0.0 0.0 0.00 0.00 0.00 46 1004.8
20260507044414 32 0.0 0.0 0.00 0.00 0.00 46 1004.9
20260507041401 31 0.0 0.0 0.00 0.00 0.00 44 1004.9
20260507040358 31 0.0 0.0 0.00 0.00 0.00 43 1004.7
20260507034349 31 0.0 0.0 0.00 0.00 0.00 43 1004.6
20260507033345 31 0.0 0.0 0.00 0.00 0.00 44 1004.5
20260507032341 31 0.0 0.0 0.00 0.00 0.00 43 1004.5
20260507031337 31 0.0 0.0 0.00 0.00 0.00 43 1004.4
20260507030332 30 0.0 0.0 0.00 0.00 0.00 42 1004.3
20260507025328 30 0.0 0.0 0.00 0.00 0.00 38 1004.2
20260507024326 30 0.0 0.0 0.00 0.00 0.00 37 1004.1
20260507023321 30 0.0 0.0 0.00 0.00 0.00 38 1004.0
20260507022316 30 0.0 0.0 0.00 0.00 0.00 34 1004.0
20260507021312 30 0.0 0.0 0.00 0.00 0.00 38 1004.0
20260507020308 30 0.0 0.0 0.00 0.00 0.00 35 1003.9
20260507015306 30 0.0 0.0 0.00 0.00 0.00 34 1003.8
20260507014300 30 0.0 0.0 0.00 0.00 0.00 34 1003.7
20260507012252 30 0.0 0.0 0.00 0.00 0.00 34 1003.6
20260507011247 30 0.0 0.0 0.00 0.00 0.00 34 1003.5
20260507010243 31 0.0 0.0 0.00 0.00 0.00 34 1003.4
20260507005239 31 0.0 0.0 0.00 0.00 0.00 35 1003.4
20260507004235 31 0.0 0.0 0.00 0.00 0.00 34 1003.3
20260507003231 31 0.0 0.0 0.00 0.00 0.00 32 1003.2
20260507002227 31 0.0 0.0 0.00 0.00 0.00 30 1003.2
20260507001223 31 0.0 0.0 0.00 0.00 0.00 28 1003.3
20260507000219 32 0.0 0.0 0.00 0.00 0.00 32 1003.3
20260506235215 32 0.0 0.0 0.00 0.00 0.00 36 1003.2
20260506234210 32 0.0 0.0 0.00 0.00 0.00 36 1003.1
20260506233206 33 0.0 0.0 0.00 0.00 0.00 37 1003.2
20260506232203 33 0.0 0.0 0.00 0.00 0.00 36 1003.1
20260506231158 33 0.0 0.0 0.00 0.00 0.00 33 1003.0
20260506230154 34 0.0 0.0 0.00 0.00 0.00 42 1002.8
20260506224145 35 0.0 0.0 0.00 0.00 0.00 45 1002.6
20260506223142 35 0.0 0.0 0.00 0.00 0.00 45 1002.5
20260506220130 35 0.0 0.0 0.00 0.00 0.00 46 1002.3
20260506215126 34 0.0 0.0 0.00 0.00 0.00 46 1002.2
20260506213117 34 0.0 0.0 0.00 0.00 0.00 45 1002.1
20260506212113 34 0.0 0.0 0.00 0.00 0.00 45 1002.2
20260506211109 34 0.0 0.0 0.00 0.00 0.00 45 1002.1
20260506210104 34 0.0 0.0 0.00 0.00 0.00 46 1002.1
20260506205100 34 0.0 0.0 0.00 0.00 0.00 46 1002.4
20260506203053 34 0.0 0.0 0.00 0.00 0.00 46 1002.5
20260506202048 34 0.0 0.0 0.00 0.00 0.00 45 1002.6
20260506201044 34 0.0 0.0 0.00 0.00 0.00 45 1002.7
20260506194032 34 0.0 0.0 0.00 0.00 0.00 47 1002.7
20260506193027 34 0.0 0.0 0.00 0.00 0.00 48 1002.7
20260506192023 34 0.0 0.0 0.00 0.00 0.00 50 1002.9
20260506191020 34 0.0 0.0 0.00 0.00 0.00 50 1003.0
20260506190016 34 0.0 0.0 0.00 0.00 0.00 49 1003.0
20260506185011 34 0.0 0.0 0.00 0.00 0.00 49 1003.2
20260506184007 34 0.0 0.0 0.00 0.00 0.00 48 1003.3
20260506183003 34 0.0 0.0 0.00 0.00 0.00 48 1003.5
20260506181959 34 0.0 0.0 0.00 0.00 0.00 48 1003.7
20260506180955 34 0.0 0.0 0.00 0.00 0.00 48 1003.8
20260506175950 33 0.0 0.0 0.00 0.00 0.00 48 1003.9
20260506174946 33 0.0 0.0 0.00 0.00 0.00 49 1003.9
20260506173942 33 0.0 0.0 0.00 0.00 0.00 49 1004.1
20260506172938 33 0.0 0.0 0.00 0.00 0.00 51 1004.3
20260506171934 33 0.0 0.0 0.00 0.00 0.00 49 1004.4
20260506170930 33 0.0 0.0 0.00 0.00 0.00 49 1004.5
20260506165925 33 0.0 0.0 0.00 0.00 0.00 49 1004.6
20260506164922 33 0.0 0.0 0.00 0.00 0.00 50 1004.7
20260506161910 33 0.0 0.0 0.00 0.00 0.00 49 1005.0
20260506155901 33 0.0 0.0 0.00 0.00 0.00 49 1005.2
20260506154857 33 0.0 0.0 0.00 0.00 0.00 47 1005.3
20260506153853 33 0.0 0.0 0.00 0.00 0.00 47 1005.4
20260506152837 33 0.0 0.0 0.00 0.00 0.00 47 1005.4
20260506151833 33 0.0 0.0 0.00 0.00 0.00 47 1005.5
20260506150828 33 0.0 0.0 0.00 0.00 0.00 44 1005.4
20260506145824 33 0.0 0.0 0.00 0.00 0.00 43 1005.3
20260506144820 33 0.0 0.0 0.00 0.00 0.00 42 1005.3
20260506143816 33 0.0 0.0 0.00 0.00 0.00 42 1005.1